Location: Forli
(44.2227°N, 12.0407°E)
Time: 13:35:22
(UTC+02:00)

UWE-3 - Pass Details

Date: 21 April 2026
Orbit: 542 x 613 km, 97.9° (Epoch: 10 May)

Event Time Altitude Azimuth Distance (km) Brightness Sun altitude
Rises 05:29:55 0° 352° (N) 2,732 ? -8.9°
Reaches altitude 10° 05:33:18 10° 321° (NW) 1,822 ? -8.4°
Maximum altitude 05:34:45 12° 299° (WNW) 1,698 ? -8.2°
Drops below altitude 10° 05:36:13 10° 277° (W) 1,811 ? -7.9°
Enters shadow 05:36:57 - 267° (W) 1,947 ? -7.8°
